When you browse on this site, cookies collect data to enhance your experience and personalize the content and advertising you see.
Visit our Privacy Policy to learn more. By continuing to use the site, you agree to this use of cookies and data.
  • In Portugal
  • List of Countries
  • For 7 days
  • Water Temperature
  • Satellite Maps
  • Weather Map
  • Weather Widgets
  • user-avatar
    Login

    Hourly Weather Krylovka

    Today, 16 February, Saturday

    Time Temperature Precipitation Wind Pressure Humidity
    00:00 -10°C° 0 mm 2 mps 752 mmHg 48%
    01:00 -12°C° 0 mm 2 mps 752 mmHg 51%
    02:00 -12°C° 0 mm 2 mps 752 mmHg 55%
    03:00 -12°C° 0 mm 2 mps 752 mmHg 58%
    04:00 -13°C° 0 mm 2 mps 752 mmHg 60%
    05:00 -11°C° 0 mm 1 mps 752 mmHg 62%
    06:00 -11°C° 0 mm 1 mps 751 mmHg 64%
    07:00 -13°C° 0 mm 2 mps 752 mmHg 61%
    08:00 -12°C° 0 mm 2 mps 752 mmHg 57%
    09:00 -12°C° 0 mm 2 mps 752 mmHg 53%
    10:00 -12°C° 0 mm 3 mps 751 mmHg 48%
    11:00 -9°C° 0 mm 3 mps 751 mmHg 44%
    12:00 -9°C° 0 mm 4 mps 751 mmHg 39%
    13:00 -9°C° 0 mm 4 mps 751 mmHg 38%
    14:00 -8°C° 0 mm 4 mps 750 mmHg 38%
    15:00 -7°C° 0 mm 5 mps 750 mmHg 37%
    16:00 -8°C° 0 mm 4 mps 750 mmHg 40%
    17:00 -8°C° 0 mm 4 mps 750 mmHg 42%
    18:00 -7°C° 0 mm 3 mps 750 mmHg 44%
    19:00 -8°C° 0 mm 3 mps 750 mmHg 45%
    20:00 -8°C° 0 mm 3 mps 750 mmHg 45%
    21:00 -9°C° 0 mm 3 mps 750 mmHg 45%
    22:00 -9°C° 0 mm 3 mps 750 mmHg 46%
    23:00 -9°C° 0 mm 3 mps 750 mmHg 47%

    Tomorrow, 17 February, Sunday

    Time Temperature Precipitation Wind Pressure Humidity
    00:00 -10°C° 0 mm 3 mps 749 mmHg 48%
    01:00 -10°C° 0 mm 3 mps 750 mmHg 49%
    02:00 -10°C° 0 mm 3 mps 750 mmHg 49%
    03:00 -12°C° 0 mm 3 mps 750 mmHg 50%
    04:00 -12°C° 0 mm 3 mps 750 mmHg 51%
    05:00 -12°C° 0 mm 3 mps 749 mmHg 53%
    06:00 -12°C° 0 mm 3 mps 749 mmHg 54%
    07:00 -10°C° 0 mm 3 mps 750 mmHg 51%
    08:00 -10°C° 0 mm 3 mps 750 mmHg 47%
    09:00 -10°C° 0 mm 4 mps 750 mmHg 44%
    10:00 -9°C° 0 mm 4 mps 750 mmHg 41%
    11:00 -7°C° 0 mm 4 mps 750 mmHg 37%
    12:00 -6°C° 0 mm 5 mps 749 mmHg 34%
    13:00 -6°C° 0 mm 5 mps 749 mmHg 33%
    14:00 -5°C° 0 mm 5 mps 749 mmHg 33%
    15:00 -4°C° 0 mm 6 mps 748 mmHg 33%
    16:00 -5°C° 0 mm 5 mps 749 mmHg 36%
    17:00 -5°C° 0 mm 4 mps 749 mmHg 39%
    18:00 -5°C° 0 mm 4 mps 750 mmHg 42%
    19:00 -6°C° 0 mm 3 mps 750 mmHg 44%
    20:00 -6°C° 0 mm 3 mps 751 mmHg 46%
    21:00 -7°C° 0 mm 3 mps 751 mmHg 48%
    22:00 -7°C° 0 mm 3 mps 752 mmHg 50%
    23:00 -7°C° 0 mm 2 mps 752 mmHg 52%

    Day after tomorrow, 18 February, Monday

    Time Temperature Precipitation Wind Pressure Humidity
    00:00 -7°C° 0 mm 2 mps 752 mmHg 54%
    01:00 -8°C° 0 mm 2 mps 753 mmHg 56%
    02:00 -8°C° 0 mm 2 mps 753 mmHg 58%
    03:00 -8°C° 0 mm 2 mps 753 mmHg 60%
    04:00 -9°C° 0 mm 2 mps 754 mmHg 61%
    05:00 -8°C° 0 mm 1 mps 754 mmHg 63%
    06:00 -8°C° 0 mm 1 mps 754 mmHg 65%
    07:00 -7°C° 0 mm 1 mps 755 mmHg 60%
    08:00 -7°C° 0 mm 1 mps 755 mmHg 55%
    09:00 -7°C° 0 mm 2 mps 756 mmHg 51%
    10:00 -5°C° 0 mm 2 mps 755 mmHg 45%
    11:00 -4°C° 0 mm 2 mps 755 mmHg 38%
    12:00 -2°C° 0 mm 2 mps 755 mmHg 32%
    13:00 -1°C° 0 mm 3 mps 754 mmHg 31%
    14:00 0°C° 0 mm 3 mps 754 mmHg 29%
    15:00 0°C° 0 mm 3 mps 754 mmHg 27%
    16:00 -1°C° 0 mm 3 mps 754 mmHg 29%
    17:00 -1°C° 0 mm 2 mps 754 mmHg 31%
    18:00 -2°C° 0 mm 2 mps 754 mmHg 33%
    19:00 -3°C° 0 mm 2 mps 754 mmHg 34%
    20:00 -3°C° 0 mm 2 mps 755 mmHg 36%
    21:00 -4°C° 0 mm 2 mps 755 mmHg 37%
    22:00 -4°C° 0 mm 2 mps 755 mmHg 39%
    23:00 -4°C° 0 mm 2 mps 755 mmHg 42%

    19 February, Tuesday

    Time Temperature Precipitation Wind Pressure Humidity
    00:00 -5°C° 0 mm 2 mps 755 mmHg 45%
    01:00 -5°C° 0 mm 2 mps 755 mmHg 51%
    02:00 -4°C° 0 mm 1 mps 755 mmHg 56%
    03:00 -4°C° 0 mm 1 mps 755 mmHg 62%
    04:00 -4°C° 0 mm 1 mps 755 mmHg 67%
    05:00 -6°C° 0 mm 1 mps 755 mmHg 72%
    06:00 -6°C° 0 mm 1 mps 755 mmHg 77%
    07:00 -4°C° 0 mm 1 mps 755 mmHg 73%
    08:00 -4°C° 0 mm 1 mps 755 mmHg 70%
    09:00 -3°C° 0 mm 1 mps 756 mmHg 67%
    10:00 -2°C° 0 mm 1 mps 755 mmHg 56%
    11:00 -2°C° 0 mm 2 mps 755 mmHg 46%
    12:00 -1°C° 0 mm 2 mps 755 mmHg 35%
    13:00 +1°C° 0 mm 2 mps 755 mmHg 33%
    14:00 +1°C° 0 mm 2 mps 754 mmHg 30%
    15:00 +2°C° 0 mm 2 mps 754 mmHg 27%
    16:00 +1°C° 0 mm 2 mps 754 mmHg 30%
    17:00 +1°C° 0 mm 1 mps 754 mmHg 32%
    18:00 0°C° 0 mm 1 mps 754 mmHg 35%
    19:00 0°C° 0 mm 1 mps 755 mmHg 36%
    20:00 -1°C° 0 mm 1 mps 755 mmHg 37%
    21:00 -2°C° 0 mm 0 mps 755 mmHg 38%
    22:00 -3°C° 0 mm 0 mps 756 mmHg 39%
    23:00 -3°C° 0 mm 0 mps 756 mmHg 40%

    20 February, Wednesday

    Time Temperature Precipitation Wind Pressure Humidity
    00:00 -4°C° 0 mm 0 mps 756 mmHg 41%
    01:00 -3°C° 0 mm 1 mps 756 mmHg 43%
    02:00 -4°C° 0 mm 1 mps 756 mmHg 45%
    03:00 -4°C° 0 mm 1 mps 756 mmHg 47%
    04:00 -4°C° 0 mm 1 mps 756 mmHg 52%
    05:00 -6°C° 0 mm 1 mps 756 mmHg 57%
    06:00 -6°C° 0 mm 1 mps 756 mmHg 62%
    07:00 -6°C° 0 mm 1 mps 757 mmHg 63%
    08:00 -4°C° 0 mm 1 mps 757 mmHg 64%
    09:00 -4°C° 0 mm 1 mps 757 mmHg 65%
    10:00 -3°C° 0 mm 1 mps 757 mmHg 55%
    11:00 -4°C° 0 mm 2 mps 757 mmHg 45%
    12:00 -3°C° 0 mm 2 mps 757 mmHg 34%
    13:00 -2°C° 0 mm 2 mps 757 mmHg 30%
    14:00 -2°C° 0 mm 2 mps 757 mmHg 27%
    15:00 -2°C° 0 mm 2 mps 756 mmHg 23%
    16:00 -2°C° 0 mm 2 mps 757 mmHg 25%
    17:00 -3°C° 0 mm 2 mps 757 mmHg 26%
    18:00 -2°C° 0 mm 1 mps 757 mmHg 28%
    19:00 -2°C° 0 mm 1 mps 758 mmHg 30%
    20:00 -3°C° 0 mm 1 mps 758 mmHg 31%
    21:00 -4°C° 0 mm 0 mps 758 mmHg 33%
    22:00 -4°C° 0 mm 0 mps 759 mmHg 34%
    23:00 -5°C° 0 mm 0 mps 759 mmHg 35%

    21 February, Thursday

    Time Temperature Precipitation Wind Pressure Humidity
    00:00 -5°C° 0 mm 0 mps 759 mmHg 36%
    01:00 -4°C° 0 mm 1 mps 759 mmHg 37%
    02:00 -6°C° 0 mm 1 mps 759 mmHg 38%
    03:00 -6°C° 0 mm 1 mps 759 mmHg 39%
    04:00 -6°C° 0 mm 1 mps 759 mmHg 42%
    05:00 -6°C° 0 mm 1 mps 759 mmHg 44%
    06:00 -7°C° 0 mm 1 mps 759 mmHg 46%
    07:00 -6°C° 0 mm 1 mps 759 mmHg 45%
    08:00 -4°C° 0 mm 1 mps 759 mmHg 44%
    09:00 -3°C° 0 mm 1 mps 759 mmHg 43%
    10:00 -4°C° 0 mm 2 mps 759 mmHg 41%
    11:00 -2°C° 0 mm 2 mps 758 mmHg 38%
    12:00 -1°C° 0 mm 3 mps 758 mmHg 35%
    13:00 0°C° 0 mm 3 mps 757 mmHg 35%
    14:00 0°C° 0 mm 3 mps 757 mmHg 35%
    15:00 +1°C° 0 mm 3 mps 756 mmHg 34%
    16:00 +1°C° 0 mm 2 mps 756 mmHg 38%
    17:00 -1°C° 0 mm 2 mps 757 mmHg 41%
    18:00 0°C° 0 mm 1 mps 757 mmHg 44%
    19:00 0°C° 0 mm 1 mps 757 mmHg 45%
    20:00 0°C° 0 mm 1 mps 757 mmHg 45%
    21:00 -3°C° 0 mm 2 mps 758 mmHg 46%
    22:00 -1°C° 0 mm 1 mps 758 mmHg 48%
    23:00 -1°C° 0 mm 1 mps 758 mmHg 50%
    Show more